SCP
0 0 0 0 0 0 0 0 0 0 0 0 0 0 0 0 0 0 0 0 0 0 0 0 0 0 0 0 0 0 0 0 0 0 0 0 0 0 0 0 0 0 0 0
0 0 0 0 0 0 0 0 0 0 0 0 0 0 0 0 0 0 0 0 0 0 0 0 0 0 0 0 0 0 0 0 0 0 0 0 0 0 0 0 0 0 0 0
0 0 0 0 0 0 0 0 0 0 0 0 0 0 0 0 0 0 0 0 0 0 0 0 0 0 0 0 0 0 0 0 0 0 0 0 0 0 0 0 0 0 0 0
0 0 0 0 0 0 0 0 0 0 0 0 0 0 0 0 0 0 0 0 0 0 0 0 0 0 0 0 0 0 0 0 0 0 0 0 0 0 0 0 0 0 0 0
0 0 0 0 0 0 0 0 0 0 0 0 0 0 0 0 0 0 0 0 0 0 0 0 0 0 0 0 0 0 0 0 0 0 0 0 0 0 0 0 0 0 0 0
0 0 0 0 0 0 0 0 0 0 0 0 0 0 0 0 0 0 0 0 0 0 0 0 0 0 0 0 0 0 0 0 0 0 0 0 0 0 0 0 0 0 0 0
0 0 0 0 0 0 0 0 0 0 0 0 0 0 0 0 0 0 0 0 0 0 0 0 0 0 0 0 0 0 0 0 0 0 0 0 0 0 0 0 0 0 0 0
0 0 0 0 0 0 0 0 0 0 0 0 0 0 0 0 0 0 0 0 0 0 0 0 0 0 0 0 0 0 0 0 0 0 0 0 0 0 0 0 0 0 0 0
0 0 0 0 0 0 0 0 0 0 0 0 0 0 0 0 0 0 0 0 0 0 0 0 0 0 0 0 0 0 0 0 0 0 0 0 0 0 0 0 0 0 0 0
0 0 0 0 0 0 0 0 0 0 0 0 0 0 0 0 0 0 0 0 0 0 0 0 0 0 0 0 0 0 0 0 0 0 0 0 0 0 0 0 0 0 0 0
0 0 0 0 0 0 0 0 0 0 0 0 0 0 0 0 0 0 0 0 0 0 0 0 0 0 0 0 0 0 0 0 0 0 0 0 0 0 0 0 0 0 0 0
0 0 0 0 0 0 0 0 0 0 0 0 0 0 0 0 0 0 0 0 0 0 0 0 0 0 0 0 0 0 0 0 0 0 0 0 0 0 0 0 0 0 0 0
0 0 0 0 0 0 0 0 0 0 0 0 0 0 0 0 0 0 0 0 0 0 0 0 0 0 0 0 0 0 0 0 0 0 0 0 0 0 0 0 0 0 0 0
0 0 0 0 0 0 0 0 0 0 0 0 0 0 0 0 0 0 0 0 0 0 0 0 0 0 0 0 0 0 0 0 0 0 0 0 0 0 0 0 0 0 0 0
0 0 0 0 0 0 0 0 0 0 0 0 0 0 0 0 0 0 0 0 0 0 0 0 0 0 0 0 0 0 0 0 0 0 0 0 0 0 0 0 0 0 0 0
0 0 0 0 0 0 0 0 0 0 0 0 0 0 0 0 0 0 0 0 0 0 0 0 0 0 0 0 0 0 0 0 0 0 0 0 0 0 0 0 0 0 0 0
0 0 0 0 0 0 0 0 0 0 0 0 0 0 0 0 0 0 0 0 0 0 0 0 0 0 0 0 0 0 0 0 0 0 0 0 0 0 0 0 0 0 0 0
0 0 0 0 0 0 0 0 0 0 0 0 0 0 0 0 0 0 0 0 0 0 0 0 0 0 0 0 0 0 0 0 0 0 0 0 0 0 0 0 0 0 0 0
0 0 0 0 0 0 0 0 0 0 0 0 0 0 0 0 0 0 0 0 0 0 0 0 0 0 0 0 0 0 0 0 0 0 0 0 0 0 0 0 0 0 0 0
0 0 0 0 0 0 0 0 0 0 0 0 0 0 0 0 0 0 0 0 0 0 0 0 0 0 0 0 0 0 0 0 0 0 0 0 0 0 0 0 0 0 0 0
0 0 0 0 0 0 0 0 0 0 0 0 0 0 0 0 0 0 0 0 0 0 0 0 0 0 0 0 0 0 0 0 0 0 0 0 0 0 0 0 0 0 0 0
0 0 0 0 0 0 0 0 0 0 0 0 0 0 0 0 0 0 0 0 0 0 0 0 0 0 0 0 0 0 0 0 0 0 0 0 0 0 0 0 0 0 0 0
0 0 0 0 0 0 0 0 0 0 0 0 0 0 0 0 0 0 0 0 0 0 0 0 0 0 0 0 0 0 0 0 0 0 0 0 0 0 0 0 0 0 0 0
0 0 0 0 0 0 0 0 0 0 0 0 0 0 0 0 0 0 0 0 0 0 0 0 0 0 0 0 0 0 0 0 0 0 0 0 0 0 0 0 0 0 0 0
0 0 0 0 0 0 0 0 0 0 0 0 0 0 0 0 0 0 0 0 0 0 0 0 0 0 0 0 0 0 0 0 0 0 0 0 0 0 0 0 0 0 0 0
0 0 0 0 0 0 0 0 0 0 0 0 0 0 0 0 0 0 0 0 0 0 0 0 0 0 0 0 0 0 0 0 0 0 0 0 0 0 0 0 0 0 0 0
0 0 0 0 0 0 0 0 0 0 0 0 0 0 0 0 0 0 0 0 0 0 0 0 0 0 0 0 0 0 0 0 0 0 0 0 0 0 0 0 0 0 0 0
Wind_Speed
6 4 6 9 10 12 12 12 13 11 10 9 9 9 7 7 7 7 7 6 8 9 9 8 8 8 8 8 7 7 7 7 6 5 4 3 2 1 1 2 3 4 5 5
4 1 3 7 8 12 11 8 8 7 10 7 6 5 6 7 7 7 7 6 7 7 8 9 9 9 8 8 8 7 7 7 6 5 4 3 2 1 2 3 4 5 5 6
5 3 1 14 13 14 9 8 10 14 12 4 5 7 8 8 7 7 6 6 7 7 8 8 9 9 10 9 7 7 7 6 6 5 4 3 1 2 3 4 5 5 6 7
5 5 14 9 4 10 11 10 10 7 5 6 8 5 5 6 8 8 7 6 6 6 7 7 7 7 7 5 6 7 7 7 6 5 4 2 1 1 3 3 4 6 7 8
6 8 10 6 5 8 9 10 9 12 10 5 4 3 2 5 7 8 8 7 7 7 6 5 6 6 5 5 6 7 8 7 7 5 4 2 1 1 2 3 5 6 7 7
7 8 12 7 4 5 7 7 7 11 10 7 8 4 6 7 8 8 7 6 6 5 4 5 6 5 6 7 7 9 8 7 6 5 3 2 1 1 2 3 5 7 8 7
9 10 11 5 5 8 8 10 5 8 8 10 10 8 5 6 8 9 8 8 7 6 6 7 5 6 7 7 9 6 5 6 5 3 2 1 1 1 2 4 6 6 9 9
7 9 13 9 10 12 9 4 7 8 8 10 10 7 6 6 8 9 9 8 7 6 7 6 6 7 8 8 5 6 6 5 4 2 1 1 1 2 3 4 6 7 8 9
12 9 1 12 10 8 7 7 8 8 9 10 9 9 8 8 9 9 9 9 7 8 8 5 6 7 9 5 7 7 5 4 3 2 2 2 2 3 3 3 4 6 6 8
5 5 3 6 4 4 7 8 9 10 9 9 10 9 9 8 8 9 9 9 7 7 8 8 6 6 5 6 7 6 5 4 3 3 3 3 3 3 4 4 5 6 7 8
5 4 3 6 10 10 8 7 6 6 7 9 10 10 9 8 9 9 9 8 7 8 10 9 6 6 6 7 7 6 5 4 3 3 3 3 4 4 6 7 8 8 8 8
9 10 8 9 10 11 11 11 11 9 8 8 10 10 10 9 9 8 8 7 6 8 8 6 7 7 6 6 6 6 4 4 4 3 3 3 4 5 10 12 16 18 18 14
8 8 9 7 8 10 11 12 11 11 12 10 9 10 10 9 8 7 6 6 8 8 6 6 7 7 6 6 6 6 5 4 3 4 4 4 4 4 6 7 11 14 13 14
7 6 6 8 10 9 10 12 10 8 9 9 8 7 7 7 6 6 6 5 4 5 5 6 6 5 5 6 6 6 5 5 5 4 4 4 4 5 5 5 6 6 8 14
13 11 11 8 8 9 8 8 8 9 9 9 8 8 8 8 7 5 3 5 5 5 4 4 4 4 4 5 5 6 5 5 4 4 4 4 4 5 5 6 6 6 7 8
9 9 10 11 14 13 10 9 10 12 11 10 8 8 7 5 4 6 6 6 6 4 4 3 4 3 3 4 5 4 5 7 6 4 4 4 5 5 5 5 5 5 6 6
9 11 11 11 16 15 13 13 13 13 10 9 8 6 7 7 7 6 5 4 3 2 1 3 4 2 3 4 5 4 4 5 6 5 4 5 5 5 5 5 5 5 6 8
15 17 14 11 11 12 12 11 10 10 8 6 7 8 9 8 7 7 6 4 3 1 3 4 5 4 4 5 5 4 4 4 4 5 4 4 5 5 5 5 5 6 6 7
11 11 10 8 7 7 6 5 4 4 4 7 9 8 7 6 7 7 5 4 2 2 3 2 4 1 3 5 5 4 4 4 4 5 4 5 5 5 5 5 5 5 6 6
4 2 1 2 4 2 3 5 7 7 6 7 10 10 8 6 6 6 4 2 3 3 2 2 3 3 4 5 5 3 4 5 5 5 4 4 5 5 5 5 5 5 5 5
4 4 5 6 7 7 6 6 8 8 7 7 8 8 8 6 5 4 3 1 2 2 3 4 3 4 4 4 5 4 4 5 5 5 5 5 5 5 5 5 5 5 5 6
4 5 6 7 8 7 6 6 7 8 8 7 8 7 7 6 4 3 3 3 2 2 2 3 3 5 6 6 4 4 5 5 5 4 5 5 5 5 6 5 5 5 5 5
5 5 6 7 7 7 7 7 6 6 7 6 6 5 4 4 3 2 1 1 2 3 3 3 5 7 8 5 4 5 5 5 5 5 5 5 5 6 6 6 6 5 5 5
5 6 6 6 6 7 7 5 5 5 5 5 3 3 3 2 1 1 2 2 3 4 3 4 7 7 4 1 2 3 4 5 5 5 5 5 5 5 6 6 6 6 6 7
5 5 5 5 5 5 5 5 5 5 4 3 3 2 1 1 1 1 1 3 4 4 3 5 7 5 2 2 3 4 4 4 5 5 5 5 5 5 6 6 6 6 6 7
4 4 4 5 4 4 3 3 3 2 2 2 2 1 1 1 1 1 2 3 4 4 3 3 4 4 3 3 4 4 5 5 6 6 6 6 6 6 6 7 8 7 7 7
4 4 3 4 4 3 3 3 3 2 1 1 1 1 1 2 2 2 3 3 3 3 3 3 3 3 3 4 4 5 5 5 5 6 6 6 6 6 7 8 7 6 6 7
Wind_Direction
229 195 177 203 201 184 194 206 220 234 229 219 212 217 211 209 214 217 221 214 208 205 202 199 199 202 203 207 203 191 187 193 197 186 176 167 156 132 20 5 353 339 334 331
228 191 214 250 217 192 207 208 221 241 250 221 219 204 210 214 212 219 222 219 212 206 200 201 204 206 207 212 208 190 193 198 185 178 174 161 126 45 7 355 345 337 332 325
213 104 352 253 206 189 196 193 190 222 239 199 202 210 215 215 207 205 206 206 204 203 203 205 206 206 210 215 201 189 195 189 181 179 173 146 83 20 357 341 333 328 320 319
145 134 230 247 161 182 200 217 206 220 234 204 206 208 212 196 187 191 190 191 197 200 206 212 211 212 215 206 192 192 192 186 180 175 168 145 83 356 335 323 322 315 311 306
168 215 260 277 194 161 176 236 210 214 230 205 155 116 264 216 196 194 193 192 196 199 200 206 212 208 196 200 194 192 194 187 176 170 167 165 274 309 308 307 307 301 294 296
175 201 232 239 172 145 112 262 229 202 209 162 138 170 246 214 201 204 202 197 200 202 199 216 223 188 189 205 199 205 195 173 157 158 168 195 247 286 285 297 294 296 295 295
202 224 248 214 148 128 168 236 197 177 172 162 181 199 206 188 197 205 208 212 209 203 210 223 207 177 202 208 213 198 149 140 146 151 162 200 256 271 291 294 294 292 292 290
184 221 242 163 154 184 203 153 160 168 172 181 207 224 220 207 210 212 218 223 214 210 226 224 189 183 208 217 189 137 138 146 155 157 179 190 259 278 279 284 291 289 289 291
196 217 204 164 188 198 161 168 179 182 189 193 207 224 225 223 222 221 222 226 219 214 229 223 190 188 210 197 142 142 148 166 179 197 222 231 247 269 273 264 272 284 287 291
223 256 212 213 237 205 190 192 191 190 189 188 207 222 226 227 228 228 230 231 225 213 221 226 198 191 190 151 144 147 171 189 199 219 242 237 242 246 247 249 257 266 273 279
212 239 222 239 227 222 213 218 218 207 201 200 207 224 226 230 231 229 232 232 219 212 220 222 182 172 154 145 145 160 181 199 215 222 235 255 254 242 250 236 234 248 254 257
200 199 187 212 219 210 208 220 219 216 227 218 207 224 230 233 234 229 231 228 217 215 217 203 167 165 155 152 156 167 190 206 213 220 229 243 260 275 274 275 277 278 282 287
195 186 196 213 215 203 206 219 219 214 222 230 221 217 227 236 237 230 228 219 213 210 198 171 162 166 164 161 166 181 198 204 207 220 228 238 248 262 284 297 293 294 294 301
208 175 208 227 229 219 211 220 220 223 227 227 230 223 221 230 235 225 221 209 184 162 155 156 164 179 171 166 176 194 204 215 216 219 226 232 239 247 256 271 290 293 296 302
219 206 215 228 234 233 221 213 217 231 234 233 226 223 217 218 223 212 159 128 123 131 144 155 182 204 173 172 189 202 209 217 218 221 224 231 238 246 249 254 264 279 295 301
219 213 221 232 240 242 230 211 215 232 231 228 222 217 207 189 154 126 121 126 135 159 173 187 218 225 183 186 202 211 219 229 222 218 225 231 236 242 247 251 258 269 279 289
220 230 221 224 236 240 234 224 222 231 231 223 215 181 143 128 123 126 120 103 99 115 170 218 242 247 213 207 211 219 217 229 232 227 226 228 232 237 244 247 254 262 268 279
224 235 234 223 227 232 236 229 221 222 223 204 146 137 145 152 155 147 135 119 100 316 267 249 249 245 235 224 218 220 219 222 221 227 231 232 235 236 240 247 253 262 274 287
242 246 253 246 237 229 229 220 197 167 136 129 132 135 128 121 118 123 125 129 151 262 278 281 293 266 231 233 220 212 218 228 232 232 231 238 242 238 239 244 251 256 267 278
299 325 3 47 43 70 116 103 104 99 99 113 116 116 114 113 116 121 126 162 223 230 255 279 288 275 256 257 254 218 219 228 236 238 235 235 241 243 242 246 250 256 260 266
27 56 80 87 70 59 74 100 109 107 99 105 117 123 123 122 125 130 134 208 256 227 246 260 252 251 247 241 241 231 229 232 238 241 240 240 244 249 249 249 252 258 261 267
53 80 91 96 97 80 61 72 93 103 101 96 99 110 120 128 141 158 200 222 251 279 274 262 256 251 250 242 228 226 229 233 238 240 241 240 242 249 253 254 255 259 260 261
63 78 87 91 98 95 79 72 83 97 103 108 116 124 127 132 150 156 181 222 242 272 266 258 266 269 268 241 221 225 231 235 240 242 243 243 244 246 253 258 258 259 263 264
66 72 80 88 97 96 88 77 75 80 90 96 104 119 123 122 128 225 237 280 285 287 282 274 283 294 308 266 237 235 238 242 247 248 249 249 247 248 251 254 260 260 259 263
69 76 84 91 88 88 99 104 93 86 89 84 82 92 120 155 179 236 267 278 286 295 283 290 299 305 295 258 256 253 253 251 252 252 251 253 253 252 252 252 254 259 259 259
62 64 62 65 78 94 101 102 97 91 88 82 57 41 27 348 291 277 276 277 283 286 280 274 276 278 265 260 260 262 264 267 268 262 256 256 255 255 256 256 255 256 258 259
71 71 74 71 59 62 76 86 98 96 85 91 53 331 320 314 307 298 293 289 289 285 281 278 275 269 266 264 265 268 268 267 265 263 260 258 257 257 258 258 259 259 261 262